Location: Unspecified
(0.0000°N, 0.0000°E)
Time: 01:05:34
(UTC+00:00)

Fuji - Pass Details

Date: 01 December 2022
Orbit: 1479 x 1496 km, 50.0° (Epoch: 26 January)

Event Time Altitude Azimuth Distance (km) Brightness Sun altitude
Rises 20:00:17 0° 295° (WNW) 4,591 ? -30.2°
Reaches altitude 10° 20:04:01 10° 282° (WNW) 3,616 ? -31.0°
Maximum altitude 20:10:56 24° 231° (SW) 2,672 ? -32.6°
Drops below altitude 10° 20:17:54 10° 180° (S) 3,632 ? -34.1°
Sets 20:21:43 0° 167° (SSE) 4,617 ? -35.0°
